Weather in Pravda

Russia / Sakhalin District     46°56′19″N   142°00′19″E
temp.,
°C
wind,
m/s
gust,
m/s
humid.,
%
clouds,
%
prec.,
mm/h
press.,
hPa
HPBL,
m
16 may, sun
sun1623:00+8se61171100 0.0 1008260
02:00+9s41467100 0.1 1006645
05:00+7ssw81596100 3.4 1006420
08:00+7ssw61199100 6.2 1006311
11:00+9ssw71193100 7.3 1005420
14:00+10ssw81380100 0.0 1004551
17:00+11ssw8137552 0.0 1003436
20:00+10ssw61380100 0.0 1003358
17 may, mon
mon1723:00+8s5997100 0.0 1004188
02:00+7s3496100 0.0 100449
05:00+7sse1193100 0.0 100211
08:00+9sw0186100 0.0 100142
11:00+12wnw227247 0.0 1001243
14:00+11nw2371100 0.1 1001320
17:00+11nw227043 0.1 1001257
20:00+11se117118 0.0 100211
18 may, tue
tue1823:00+8s118091 0.0 100410
02:00+8se2270100 0.0 100511
05:00+9sse336340 0.0 100518
08:00+12sse35622 0.0 1006129
11:00+14ssw611530 0.0 1006401
14:00+15ssw812520 0.0 1005437
17:00+14ssw711570 0.0 1006357
20:00+13s511620 0.0 1006252
19 may, wed
wed1923:00+11s511660 0.0 1007202
02:00+10s613710 0.0 1006244
05:00+10s815790 0.0 1006306
08:00+11s713773 0.0 1007319
11:00+12ssw814710 0.0 1008409
14:00+12ssw814700 0.0 1008427
17:00+12ssw813754 0.0 1008376
20:00+10ssw5108645 0.0 1010297
20 may, thu
thu2023:00+9s599387 0.0 1011219
02:00+9ssw479459 0.2 1012236
05:00+8sse349655 0.2 101371
08:00+9ssw4795100 0.0 1014282
11:00+10s589047 0.0 1014274
14:00+13ssw7107942 0.0 1013453
17:00+12ssw7118147 0.0 1012381
20:00+11ssw8168491 0.0 1013461